Location: Unspecified
(0.0000°N, 0.0000°E)
Time: 22:37:15
(UTC+00:00)

STARLINK-35415 - Visible Passes

Search period start: 14 December 2025 00:00
Search period end: 24 December 2025 00:00
Orbit: 474 x 476 km, 53.2° (Epoch: 14 December)

Date Brightness Start Highest point End Pass type
(mag) Time Alt. Az. Time Alt. Az. Time Alt. Az.
17 Dec ? 19:47:51 10° S 19:49:09 19° S 19:49:09 19° S visible
18 Dec ? 19:18:14 10° S 19:21:00 26° SE 19:21:00 26° SE visible
19 Dec ? 18:48:37 10° S 18:51:29 21° SE 18:52:50 17° E visible
20 Dec ? 18:19:02 10° SSE 18:21:29 17° SE 18:23:56 10° E visible
20 Dec ? 19:56:32 10° W 19:58:47 18° WNW 19:58:47 18° WNW visible
21 Dec ? 19:26:06 10° WSW 19:29:04 23° NW 19:30:34 18° NNW visible
22 Dec ? 18:55:41 10° WSW 18:58:56 29° NW 19:02:10 10° N visible
23 Dec ? 18:25:16 10° SW 18:28:43 38° NW 18:32:09 10° NNE visible
